[[{"header":{"parameterUnit":"m.s-1","parameterCategory":1,"la1":30.2991,"la2":30.254,"lo1":-89.0895,"lo2":-89.0444,"dy":0.0017,"dx":0.0017,"nx":28,"ny":28,"refTime":"2023-04-22T21:00:00:Z","depth":0,"parameterNumber":2,"parameterNumberName":"U-component_of_WINDS"},"data":[0,0,0,0,0,0,0,0,0,0,0,0,0,0,0,0,0,0,0,0,0,0,0,0,0,0,0,0,0,0,0,0,0,0,0,0,0,0,0,0,0,0,0,0,0,0,0,0,0,0,0,0,0,0,0,0,0,0,-4.1052,-4.1051,0,-4.0917,-4.0916,-4.0914,-4.0751,-4.0748,-4.0745,-4.0743,-4.0603,-4.0602,-4.06,0,0,0,0,0,0,0,0,0,0,0,0,0,-4.1168,-4.1167,-4.1053,-4.1051,-4.1049,-4.0918,-4.0916,-4.0914,-4.0751,-4.0748,-4.0745,-4.0742,-4.0603,-4.0602,-4.06,0,0,0,0,0,0,0,0,0,0,0,0,0,-4.1084,-4.1167,-4.1053,-4.0952,-4.0942,-4.0918,-4.0916,-4.0913,-4.0752,-4.0748,-4.0744,-4.074,-4.0604,-4.0602,-4.06,-4.0664,0,0,-4.0594,-4.0593,0,0,0,0,0,0,0,0,-4.1089,-4.108,-4.0969,-4.0959,-4.0947,-4.0847,-4.0905,-4.083,-4.0753,-4.0824,-4.0743,-4.0739,-4.0687,-4.0678,-4.0661,-4.0657,-4.0651,-4.0594,-4.0592,-4.0591,-4.0591,0,0,0,0,0,0,0,-4.1095,-4.1085,-4.0999,-4.0967,-4.0954,-4.0913,-4.0897,-4.089,-4.0778,-4.0817,-4.0805,-4.0791,-4.068,-4.0663,-4.0656,-4.0649,-4.0594,-4.0592,-4.0591,-4.059,-4.0692,-4.0696,0,0,0,0,0,0,-4.1116,-4.1091,-4.1003,-4.0995,-4.101,-4.0914,-4.0896,-4.0883,-4.0778,-4.0758,-4.0795,-4.0784,-4.0669,-4.0659,-4.0651,-4.0719,-4.0591,-4.059,-4.0588,-4.0688,-4.0693,-4.0697,0,0,0,0,0,0,-4.1119,-4.111,-4.1009,-4.104,-4.1024,-4.0916,-4.0903,-4.0882,-4.0865,-4.0761,-4.074,-4.0798,-4.0665,-4.0654,-4.0662,-4.0712,-4.0589,-4.0587,-4.0684,-4.069,-4.0695,-4.0857,0,0,0,0,0,0,-4.1123,-4.1112,-4.1136,-4.1041,-4.1023,-4.1023,-4.0906,-4.0882,-4.0862,-4.0847,-4.0758,-4.074,-4.0661,-4.0666,-4.066,-4.0707,-4.0585,-4.0679,-4.0686,-4.0693,-4.0847,-4.0868,-4.0886,0,0,0,0,0,-4.1128,-4.1186,-4.1138,-4.1128,-4.105,-4.1026,-4.1015,-4.0924,-4.0867,-4.0889,-4.0823,-4.0743,-4.0708,-4.0668,-4.066,-4.0708,-4.0675,-4.0684,-4.0693,-4.0838,-4.0864,-4.0886,0,0,0,0,0,0,-4.1288,-4.1172,-4.1117,-4.1146,-4.1097,-4.0999,-4.1024,-4.0954,-4.092,-4.0908,-4.0795,-4.0777,-4.0799,-4.0754,-4.0712,-4.0764,-4.068,-4.0688,-4.0793,-4.0817,-4.0836,-4.0846,-4.0584,0,0,0,0,0,-4.1327,-4.1318,-4.1216,-4.1252,-4.123,-4.1132,-4.1119,-4.1053,-4.0998,-4.0976,-4.091,-4.0859,-4.0837,-4.0824,-4.0797,-4.084,-4.0818,-4.0868,-4.0888,-4.0905,-4.0912,-4.0932,-4.0954,-4.0727,-4.0727,-4.0726,0,0,-4.1406,-4.1341,-4.1342,-4.1282,-4.1237,-4.123,-4.1116,-4.1113,-4.1107,-4.0975,-4.0979,-4.093,-4.0866,-4.0892,-4.09,-4.0855,-4.0971,-4.0916,-4.093,-4.0928,-4.0944,-4.0965,-4.0985,-4.0733,-4.0732,-4.0731,0,0,-4.1547,-4.1498,-4.1522,-4.148,-4.1413,-4.1347,-4.1354,-4.1266,-4.1228,-4.1231,-4.1132,-4.1123,-4.1087,-4.1045,-4.102,-4.1148,-4.1074,-4.1143,-4.1244,-4.1265,-4.1283,-4.1298,-4.1345,-4.1363,-4.1151,-4.1151,-4.1152,0,-4.1654,-4.1641,-4.1543,-4.1547,-4.1524,-4.1406,-4.143,-4.1393,-4.1321,-4.1308,-4.1259,-4.1211,-4.116,-4.1175,-4.1207,-4.119,-4.1193,-4.1152,-4.1289,-4.1303,-4.1316,-4.1359,-4.1376,-4.116,-4.1159,-4.1158,-4.1157,0,-4.1776,-4.1768,-4.1796,-4.1731,-4.171,-4.1725,-4.163,-4.1621,-4.1557,-4.1498,-4.1502,-4.1437,-4.1395,-4.1394,-4.1332,-4.1401,-4.1375,-4.1309,-4.1222,-4.1348,-4.1386,-4.1402,-4.1173,-4.117,-4.1167,-4.1165,0,0,-4.2013,-4.1895,-4.1907,-4.1876,-4.1795,-4.1787,-4.1796,-4.1757,-4.1752,-4.1706,-4.1711,-4.1684,-4.1623,-4.1594,-4.1526,-4.1544,-4.1651,-4.1475,-4.1472,-4.1511,-4.1725,-4.1776,-4.1796,-4.1602,-4.1604,-4.1607,-4.173,0,-4.2139,-4.2149,-4.2062,-4.2095,-4.2087,-4.1976,-4.1983,-4.1935,-4.1879,-4.1864,-4.1802,-4.1785,-4.1705,-4.1687,-4.1701,-4.1636,-4.1693,-4.1625,-4.1605,-4.1606,-4.1625,-4.1816,-4.1869,-4.1989,-4.1745,-4.1747,-4.1749,0,-4.2288,-4.2253,-4.2285,-4.2204,-4.2197,-4.2206,-4.2163,-4.215,-4.2093,-4.2051,-4.2021,-4.1943,-4.1946,-4.1865,-4.1868,-4.1824,-4.1811,-4.1778,-4.178,-4.1775,-4.1685,-4.1816,-4.2024,-4.2043,-4.1772,-4.177,-4.1768,0,-4.2458,-4.2419,-4.2433,-4.241,-4.2315,-4.2324,-4.2285,-4.2224,-4.2206,-4.2169,-4.2157,-4.2121,-4.2101,-4.2075,-4.199,-4.1938,-4.2004,-4.1914,-4.1969,-4.1972,-4.1987,-4.1988,-4.2198,-4.198,-4.1979,-4.1979,-4.1979,0,-4.2609,-4.2633,-4.2508,-4.2518,-4.2542,-4.2442,-4.2469,-4.2419,-4.2366,-4.2363,-4.2264,-4.2264,-4.2152,-4.2139,-4.2072,-4.2086,-4.2077,-4.2044,-4.2026,-4.2053,-4.2057,-4.2042,-4.2032,-4.1984,-4.1983,-4.1982,-4.1981,0,-4.2803,-4.272,-4.2729,-4.2639,-4.2617,-4.2639,-4.2561,-4.2566,-4.2505,-4.2503,-4.2497,-4.2401,-4.2381,-4.2294,-4.2253,-4.2208,-4.2244,-4.2209,-4.2264,-4.2253,-4.2313,-4.2309,-4.252,-4.2543,-4.2312,-4.2314,-4.2316,0,-4.2904,-4.292,-4.2833,-4.2824,-4.279,-4.2777,-4.2759,-4.2662,-4.2648,-4.2585,-4.2597,-4.2569,-4.2542,-4.2515,-4.2442,-4.241,-4.2373,-4.245,-4.2368,-4.2395,-4.2375,-4.2375,-4.2377,-4.2468,-4.2471,-4.2473,-4.2475,0,-4.3093,-4.3052,-4.303,-4.2994,-4.2976,-4.2943,-4.2904,-4.2903,-4.2795,-4.2784,-4.2763,-4.2742,-4.2701,-4.2674,-4.2631,-4.259,-4.2516,-4.2502,-4.2513,-4.254,-4.2572,-4.2556,-4.2313,-4.2497,-4.2495,-4.2493,-4.2492,-4.2491,-4.3243,-4.3253,-4.3194,-4.3173,-4.3134,-4.31,-4.3101,-4.3041,-4.3021,-4.2981,-4.2925,-4.2912,-4.2855,-4.2789,-4.2754,-4.2742,-4.27,-4.2716,-4.272,-4.2726,-4.2739,-4.2575,-4.2734,-4.2733,-4.2732,-4.2732,-4.2731,0,-4.3427,-4.3384,-4.3366,-4.3315,-4.33,-4.3232,-4.3186,-4.3177,-4.3166,-4.312,-4.3096,-4.3072,-4.3047,-4.2973,-4.294,-4.2945,-4.291,-4.2939,-4.2938,-4.293,-4.2779,-4.2772,-4.2968,-4.2968,-4.2968,-4.2968,-4.2968,-4.2968,-4.3521,-4.3534,-4.3487,-4.348,-4.3436,-4.3423,-4.3403,-4.3371,-4.3334,-4.3312,-4.3291,-4.3243,-4.3186,-4.3149,-4.3123,-4.3101,-4.3094,-4.3135,-4.3103,-4.2963,-4.294,-4.2919,-4.2912,-4.3135,-4.3135,-4.3255,-4.3256,-4.3257]},{"header":{"parameterUnit":"m.s-1","parameterCategory":1,"la1":30.2991,"la2":30.254,"lo1":-89.0895,"lo2":-89.0444,"dy":0.0017,"dx":0.0017,"nx":28,"ny":28,"refTime":"2023-04-22T21:00:00:Z","depth":0,"parameterNumber":3,"parameterNumberName":"V-component_of_WINDS"},"data":[0,0,0,0,0,0,0,0,0,0,0,0,0,0,0,0,0,0,0,0,0,0,0,0,0,0,0,0,0,0,0,0,0,0,0,0,0,0,0,0,0,0,0,0,0,0,0,0,0,0,0,0,0,0,0,0,0,0,-6.6956,-6.6958,0,-6.7087,-6.7089,-6.709,-6.6936,-6.693,-6.6924,-6.6919,-6.7053,-6.7062,-6.7071,0,0,0,0,0,0,0,0,0,0,0,0,0,-6.6571,-6.6579,-6.6956,-6.6958,-6.6959,-6.7087,-6.7089,-6.709,-6.6937,-6.693,-6.6923,-6.6916,-6.705,-6.7061,-6.7072,0,0,0,0,0,0,0,0,0,0,0,0,0,-6.6724,-6.6582,-6.6956,-6.6898,-6.6894,-6.7087,-6.7089,-6.7091,-6.6938,-6.6929,-6.6921,-6.6913,-6.7047,-6.706,-6.7073,-6.7329,0,0,-6.7114,-6.712,0,0,0,0,0,0,0,0,-6.6716,-6.6738,-6.6905,-6.6902,-6.6898,-6.6986,-6.7002,-6.7171,-6.694,-6.6922,-6.6919,-6.6909,-6.7038,-6.7052,-6.7095,-6.7335,-6.7341,-6.7115,-6.7123,-6.7129,-6.7133,0,0,0,0,0,0,0,-6.6705,-6.6732,-6.7008,-6.6907,-6.6904,-6.6865,-6.6877,-6.7033,-6.7027,-6.6922,-6.6912,-6.6929,-6.7034,-6.7083,-6.7097,-6.7343,-6.7115,-6.7127,-6.7135,-6.714,-6.7797,-6.7806,0,0,0,0,0,0,-6.6701,-6.6724,-6.7004,-6.7012,-6.6784,-6.6879,-6.6892,-6.6967,-6.7024,-6.7025,-6.6936,-6.6921,-6.7064,-6.7082,-6.7101,-6.7403,-6.7129,-6.7142,-6.7149,-6.7787,-6.7799,-6.7809,0,0,0,0,0,0,-6.6694,-6.6728,-6.6998,-6.6865,-6.6896,-6.6895,-6.6979,-6.6974,-6.7022,-6.7035,-6.7033,-6.6987,-6.7058,-6.7082,-6.7273,-6.7405,-6.7148,-6.716,-6.7776,-6.7791,-6.7804,-6.8009,0,0,0,0,0,0,-6.6683,-6.6726,-6.6824,-6.6868,-6.6904,-6.7169,-6.6988,-6.6983,-6.7045,-6.7027,-6.7082,-6.7083,-6.7053,-6.7254,-6.7286,-6.7419,-6.717,-6.7764,-6.7783,-6.7799,-6.7991,-6.8029,-6.8061,0,0,0,0,0,-6.667,-6.6877,-6.6829,-6.6864,-6.7026,-6.7177,-6.7197,-6.7159,-6.7057,-6.7154,-6.7162,-6.7081,-6.7386,-6.7274,-6.731,-6.7449,-6.7756,-6.7778,-6.7798,-6.7975,-6.8021,-6.806,0,0,0,0,0,0,-6.6848,-6.6882,-6.6829,-6.7057,-6.7115,-6.715,-6.7273,-6.7209,-6.7298,-6.7277,-6.7226,-6.7239,-6.7442,-6.7464,-6.734,-6.7698,-6.7554,-6.7583,-6.7676,-6.772,-6.7755,-6.7745,-6.7182,0,0,0,0,0,-6.6914,-6.7034,-6.7056,-6.7255,-6.7286,-6.7275,-6.7339,-6.7304,-6.7363,-6.7387,-6.7409,-6.7468,-6.7577,-6.765,-6.7751,-6.7993,-6.8002,-6.8106,-6.8141,-6.817,-6.8196,-6.8324,-6.837,-6.7878,-6.7878,-6.7878,0,0,-6.7051,-6.7084,-6.7163,-6.7291,-6.7332,-6.7457,-6.7297,-6.7436,-6.7527,-6.7408,-6.7588,-6.7607,-6.767,-6.7887,-6.7983,-6.7912,-6.8333,-6.8197,-6.822,-6.823,-6.835,-6.8397,-6.8438,-6.7892,-6.789,-6.7888,0,0,-6.7364,-6.7402,-6.757,-6.7614,-6.7678,-6.7669,-6.771,-6.7755,-6.7762,-6.7942,-6.7855,-6.7962,-6.8152,-6.8199,-6.8249,-6.8578,-6.8506,-6.8613,-6.8797,-6.8922,-6.8961,-6.8995,-6.9111,-6.9153,-6.8638,-6.8639,-6.8639,0,-6.7526,-6.771,-6.7665,-6.781,-6.7868,-6.7765,-6.7935,-6.798,-6.8074,-6.8116,-6.8034,-6.8268,-6.8303,-6.8529,-6.8609,-6.8653,-6.8697,-6.8606,-6.8959,-6.8992,-6.9023,-6.9134,-6.9178,-6.8651,-6.865,-6.8648,-6.8647,0,-6.7906,-6.8035,-6.8163,-6.8256,-6.8329,-6.8486,-6.8463,-6.8542,-6.8501,-6.85,-6.8684,-6.8723,-6.8829,-6.888,-6.8841,-6.91,-6.9053,-6.8967,-6.882,-6.9084,-6.9186,-6.9228,-6.8669,-6.8665,-6.8661,-6.8658,0,0,-6.8335,-6.84,-6.8448,-6.8488,-6.855,-6.8649,-6.88,-6.8903,-6.8972,-6.904,-6.9164,-6.9326,-6.9245,-6.9301,-6.9267,-6.9377,-6.9633,-6.9275,-6.9276,-6.934,-6.9919,-6.9984,-7.0034,-6.9586,-6.9594,-6.96,-6.9913,0,-6.8648,-6.891,-6.8873,-6.9125,-6.9243,-6.9146,-6.9277,-6.933,-6.9333,-6.9432,-6.9435,-6.955,-6.9435,-6.9468,-6.9573,-6.958,-6.9749,-6.9557,-6.9701,-6.9706,-6.9687,-7.0087,-7.0157,-7.0451,-6.9953,-6.996,-6.9965,0,-6.9048,-6.913,-6.9394,-6.9436,-6.9484,-6.9603,-6.9694,-6.9791,-6.9847,-6.9841,-6.9904,-6.9849,-6.9999,-6.9851,-7.0056,-6.9927,-6.9983,-6.9995,-7.0006,-7.0017,-6.9851,-7.0109,-7.0544,-7.0588,-7.0028,-7.0023,-7.0019,0,-6.9333,-6.9509,-6.9689,-6.9727,-6.9781,-6.9867,-6.9893,-6.9941,-7.0005,-7.0085,-7.0125,-7.0221,-7.0274,-7.0349,-7.0321,-7.0216,-7.0532,-7.0382,-7.0531,-7.0532,-7.0602,-7.0597,-7.1051,-7.064,-7.0639,-7.0639,-7.0638,0,-6.9686,-6.9851,-6.9818,-6.9929,-7.011,-7.0065,-7.0246,-7.0261,-7.0304,-7.0415,-7.0337,-7.0443,-7.04,-7.0503,-7.0482,-7.0655,-7.068,-7.0678,-7.0671,-7.0685,-7.0685,-7.0721,-7.0699,-7.065,-7.0648,-7.0645,-7.0643,0,-7.0035,-7.002,-7.0209,-7.0245,-7.0258,-7.039,-7.0419,-7.0523,-7.0519,-7.0661,-7.0691,-7.0686,-7.0803,-7.0783,-7.0913,-7.0898,-7.1113,-7.1081,-7.1095,-7.1087,-7.1236,-7.1222,-7.1728,-7.1791,-7.1341,-7.1345,-7.1349,0,-7.026,-7.0385,-7.0433,-7.0502,-7.0535,-7.0647,-7.0711,-7.0672,-7.0742,-7.0815,-7.091,-7.1019,-7.1105,-7.1296,-7.1304,-7.1402,-7.1371,-7.1541,-7.1385,-7.1395,-7.1372,-7.1364,-7.1376,-7.1572,-7.1577,-7.1581,-7.1585,0,-7.0662,-7.0648,-7.0744,-7.0838,-7.0917,-7.0989,-7.1054,-7.1114,-7.108,-7.1163,-7.1281,-7.1348,-7.1479,-7.1589,-7.1681,-7.1706,-7.1641,-7.1634,-7.1673,-7.1689,-7.1691,-7.169,-7.1178,-7.1622,-7.1618,-7.1616,-7.1614,-7.1612,-7.0955,-7.106,-7.1111,-7.122,-7.1264,-7.1326,-7.1424,-7.1433,-7.1531,-7.1635,-7.1605,-7.1739,-7.1791,-7.1906,-7.1943,-7.2047,-7.1983,-7.2041,-7.2055,-7.207,-7.2087,-7.1675,-7.2063,-7.2062,-7.2061,-7.206,-7.2059,0,-7.1351,-7.1378,-7.1479,-7.1572,-7.1658,-7.1587,-7.1655,-7.1731,-7.185,-7.1904,-7.1989,-7.2125,-7.223,-7.2245,-7.2345,-7.2425,-7.2397,-7.2453,-7.2446,-7.2452,-7.2139,-7.2094,-7.2473,-7.2473,-7.2473,-7.2473,-7.2473,-7.2473,-7.1567,-7.1741,-7.1733,-7.1928,-7.1954,-7.2085,-7.2129,-7.2185,-7.2227,-7.2382,-7.2469,-7.2478,-7.2516,-7.2617,-7.2711,-7.2712,-7.2752,-7.2819,-7.2809,-7.2516,-7.2475,-7.2435,-7.2393,-7.2829,-7.2829,-7.3114,-7.3116,-7.3119]}]]